TimeCDT,TemperatureF,Dew PointF,Humidity,Sea Level PressureIn,VisibilityMPH,Wind Direction,Wind SpeedMPH,Gust SpeedMPH,PrecipitationIn,Events,Conditions,WindDirDegrees,DateUTC
12:53 AM,55.0,52.0,89,29.95,10.0,SE,3.5,-,N/A,,Clear,140,2013-09-25 05:53:00
1:53 AM,54.0,51.1,90,29.95,10.0,Calm,Calm,-,N/A,,Clear,0,2013-09-25 06:53:00
2:53 AM,52.0,50.0,93,29.94,10.0,Calm,Calm,-,N/A,,Clear,0,2013-09-25 07:53:00
3:53 AM,52.0,50.0,93,29.94,10.0,ESE,3.5,-,N/A,,Clear,120,2013-09-25 08:53:00
4:53 AM,51.1,50.0,96,29.94,9.0,SE,3.5,-,N/A,,Clear,130,2013-09-25 09:53:00
5:53 AM,51.1,50.0,96,29.95,8.0,ESE,3.5,-,N/A,,Clear,110,2013-09-25 10:53:00
6:53 AM,50.0,48.9,96,29.94,8.0,East,3.5,-,N/A,,Clear,100,2013-09-25 11:53:00
7:11 AM,44.6,44.6,100,29.93,1.8,Calm,Calm,-,N/A,,Clear,0,2013-09-25 12:11:00
7:22 AM,48.2,46.4,93,29.93,3.0,Calm,Calm,-,N/A,,Clear,0,2013-09-25 12:22:00
7:53 AM,50.0,48.9,96,29.94,6.0,Calm,Calm,-,N/A,,Clear,0,2013-09-25 12:53:00
8:53 AM,54.0,51.1,90,29.95,7.0,SE,4.6,-,N/A,,Clear,140,2013-09-25 13:53:00
9:53 AM,59.0,53.1,81,29.94,10.0,SE,9.2,-,N/A,,Clear,140,2013-09-25 14:53:00
10:53 AM,64.9,54.0,68,29.94,10.0,SSE,10.4,-,N/A,,Clear,160,2013-09-25 15:53:00
11:53 AM,70.0,53.1,55,29.93,10.0,South,15.0,-,N/A,,Clear,170,2013-09-25 16:53:00
12:53 PM,71.1,52.0,51,29.91,10.0,South,13.8,23.0,N/A,,Clear,180,2013-09-25 17:53:00
1:53 PM,70.0,52.0,53,29.88,10.0,SSE,17.3,21.9,N/A,,Clear,160,2013-09-25 18:53:00
2:53 PM,69.1,52.0,54,29.87,10.0,SE,16.1,-,N/A,,Clear,140,2013-09-25 19:53:00
3:53 PM,71.1,51.1,49,29.86,10.0,SSE,17.3,24.2,N/A,,Clear,150,2013-09-25 20:53:00
4:53 PM,71.1,50.0,47,29.84,10.0,SE,15.0,23.0,N/A,,Clear,130,2013-09-25 21:53:00
5:53 PM,70.0,50.0,49,29.84,10.0,SE,12.7,-,N/A,,Clear,140,2013-09-25 22:53:00
6:53 PM,66.9,51.1,57,29.85,10.0,SE,9.2,-,N/A,,Clear,140,2013-09-25 23:53:00
7:53 PM,64.0,51.1,63,29.85,10.0,ESE,8.1,-,N/A,,Clear,120,2013-09-26 00:53:00
8:53 PM,62.1,51.1,67,29.85,10.0,SE,11.5,-,N/A,,Clear,130,2013-09-26 01:53:00
9:53 PM,60.1,51.1,72,29.86,10.0,SE,9.2,-,N/A,,Clear,130,2013-09-26 02:53:00
10:53 PM,59.0,51.1,75,29.87,10.0,SE,8.1,-,N/A,,Clear,130,2013-09-26 03:53:00
11:53 PM,57.9,51.1,78,29.87,10.0,SE,10.4,-,N/A,,Clear,140,2013-09-26 04:53:00